DW8750 Weather Reports


time (UTC)temp
F
wind
direction
speed
knots
gust
knots
rain 1hr
in
rain 24hr
in
rain mn
in
humidity
%
barometer
mb
20260504050107 56 198 0.9 3.5 0.00 0.00 0.00 62 1020.7
20260504044104 55 193 0.9 2.6 0.00 0.00 0.00 63 1020.5
20260504042101 54 209 1.7 3.5 0.00 0.00 0.00 64 1020.4
20260504041113 54 214 0.9 3.5 0.00 0.00 0.00 64 1020.5
20260504040100 55 195 0.9 2.6 0.00 0.00 0.00 64 1020.3
20260504035104 55 195 1.7 3.5 0.00 0.00 0.00 63 1020.3
20260504034058 55 213 0.9 3.5 0.00 0.00 0.00 63 1020.3
20260504032100 55 200 2.6 4.3 0.00 0.00 0.00 63 1020.3
20260504031058 55 186 2.6 4.3 0.00 0.00 0.00 63 1020.4
20260504030100 55 185 2.6 5.2 0.00 0.00 0.00 63 1020.3
20260504025058 54 188 1.7 3.5 0.00 0.00 0.00 65 1020.5
20260504024058 54 181 2.6 5.2 0.00 0.00 0.00 64 1020.6
20260504023100 54 192 2.6 4.3 0.00 0.00 0.00 65 1020.6
20260504022059 54 192 2.6 4.3 0.00 0.00 0.00 65 1020.6
20260504021104 54 186 1.7 3.5 0.00 0.00 0.00 65 1020.6
20260504020059 54 223 1.7 3.5 0.00 0.00 0.00 65 1020.5
20260504015058 55 200 2.6 4.3 0.00 0.00 0.00 66 1020.4
20260504014058 55 213 2.6 5.2 0.00 0.00 0.00 67 1020.3
20260504013056 55 228 0.9 2.6 0.00 0.00 0.00 67 1020.2
20260504012056 55 153 0.9 1.7 0.00 0.00 0.00 66 1020.3
20260504011056 55 153 2.6 4.3 0.00 0.00 0.00 67 1020.3
20260504010053 55 182 1.7 4.3 0.00 0.00 0.00 66 1020.5
20260504005053 56 184 0.9 2.6 0.00 0.00 0.00 67 1020.6
20260504004050 56 180 0.9 4.3 0.00 0.00 0.00 66 1020.6
20260504003051 56 184 2.6 4.3 0.00 0.00 0.00 66 1020.6
20260504002049 56 193 3.5 5.2 0.00 0.00 0.00 65 1020.7
20260504001050 56 203 3.5 5.2 0.00 0.00 0.00 65 1020.7
20260504000052 56 194 2.6 3.5 0.00 0.00 0.00 66 1020.7
20260503235050 57 186 1.7 4.3 0.00 0.00 0.00 65 1020.9
20260503234050 57 218 1.7 4.3 0.00 0.00 0.00 66 1021.0
20260503233049 57 201 1.7 4.3 0.00 0.00 0.00 65 1021.0
20260503232050 57 205 2.6 5.2 0.00 0.00 0.00 66 1021.1
20260503231049 57 186 3.5 5.2 0.00 0.00 0.00 66 1021.0
20260503230052 57 197 2.6 5.2 0.00 0.00 0.00 67 1021.2
20260503225050 57 220 2.6 4.3 0.00 0.00 0.00 67 1021.3
20260503224052 57 203 2.6 6.1 0.00 0.00 0.00 69 1021.3
20260503223055 57 185 3.5 5.2 0.00 0.00 0.00 70 1021.4
20260503221050 57 182 2.6 3.5 0.00 0.00 0.00 76 1021.4
20260503220047 57 188 2.6 3.5 0.00 0.00 0.00 78 1021.4
20260503215047 57 188 1.7 3.5 0.00 0.00 0.00 76 1021.4
20260503214049 58 181 1.7 4.3 0.00 0.00 0.00 78 1021.3
20260503213047 58 186 2.6 3.5 0.00 0.00 0.00 79 1021.4
20260503211045 58 191 1.7 3.5 0.00 0.00 0.00 78 1021.4
20260503210043 58 201 2.6 3.5 0.00 0.00 0.00 78 1021.4
20260503205042 58 187 2.6 4.3 0.00 0.00 0.00 78 1021.4
20260503204040 58 219 2.6 4.3 0.00 0.00 0.00 79 1021.4
20260503203041 58 195 2.6 4.3 0.00 0.00 0.00 78 1021.4
20260503202044 58 209 2.6 5.2 0.00 0.00 0.00 79 1021.3
20260503201040 59 193 2.6 5.2 0.00 0.00 0.00 79 1021.4
20260503195041 59 196 3.5 5.2 0.00 0.00 0.00 79 1021.2
20260503194036 59 185 2.6 4.3 0.00 0.00 0.00 79 1021.3
20260503193035 60 182 2.6 4.3 0.00 0.00 0.00 80 1021.3
20260503192037 60 186 3.5 4.3 0.00 0.00 0.00 79 1021.2
20260503190041 61 215 2.6 4.3 0.00 0.00 0.00 78 1021.2
20260503184035 62 167 1.7 4.3 0.00 0.00 0.00 77 1020.8
20260503183034 63 186 0.0 1.7 0.00 0.00 0.00 75 1020.7
20260503182031 63 327 0.0 0.0 0.00 0.00 0.00 75 1020.7
20260503181031 63 327 0.0 0.0 0.00 0.00 0.00 75 1020.7
20260503180033 63 327 0.9 1.7 0.00 0.00 0.00 74 1020.5
20260503175043 64 327 0.0 1.7 0.00 0.00 0.00 74 1020.4
20260503174035 64 327 1.7 3.5 0.00 0.00 0.00 73 1020.4
20260503173038 64 333 2.6 4.3 0.00 0.00 0.00 73 1020.5
20260503172034 64 323 2.6 4.3 0.00 0.00 0.00 72 1020.5
20260503171031 65 315 2.6 6.1 0.00 0.00 0.00 72 1020.3
20260503131033 66 311 8.7 13.9 0.00 0.00 0.00 69 1021.4
20260503081023 65 299 6.1 11.3 0.00 0.00 0.00 60 1022.4
20260503072030 64 308 5.2 10.4 0.00 0.00 0.00 60 1022.4
20260503071026 64 296 5.2 9.6 0.00 0.00 0.00 59 1022.3
20260503055026 60 240 3.5 6.1 0.00 0.00 0.00 64 1022.2
20260503054031 59 240 2.6 5.2 0.00 0.00 0.00 66 1022.2
20260503053028 58 206 2.6 6.1 0.00 0.00 0.00 68 1022.1
20260503052028 58 217 3.5 5.2 0.00 0.00 0.00 69 1022.0